Location: Mascot Post Office (historical)
(40.2645°N, 99.5462°W)
Time: 17:27:47
(UTC+00:00)

ATLAS 5 CENTAUR R/B - Pass Details

Date: 14 July 2020
Orbit: 534 x 1124 km, 63.4° (Epoch: 30 July)

Event Time Altitude Azimuth Distance (km) Brightness Sun altitude
Rises 10:05:42 0° 322° (NW) 3,375 5.4 -12.4°
Reaches altitude 10° 10:08:02 10° 319° (NW) 2,524 4.7 -12.1°
Maximum altitude 10:13:55 64° 240° (WSW) 1,072 2.5 -11.2°
Drops below altitude 10° 10:20:40 10° 161° (SSE) 2,876 4.8 -10.3°
Sets 10:23:28 0° 158° (SSE) 3,879 5.5 -9.9°
